IRIDIUM 33 DEB, 35631

Orbit data source: Space-Track

IRIDIUM 33 DEB, 35631 is space debris in LEO originally from a launch on Sun, 14 Sep 1997 UTC launched from the Tyuratam Missile And Space Complex (TTMTR). The debris from Iridium 33, an American commercial communications satellite, has been tracked extensively since its accidental collision with the defunct Russian satellite Cosmos 2251 in 2009. This event, occurring at high speed in low Earth orbit (LEO), generated thousands of pieces of space debris, significantly increasing the risk of further collisions. The Iridium 33 debris cloud has impacted space traffic management and orbital debris mitigation strategies, making it a subject of ongoing study in space situational awareness.

Loading next visibility...
Identifier
35631, 1997-051RD
Orbit
LEO
Country
Flag of USUS
Related business
Manufacturer
Unknown
Mission
Spacecraft
Bus & Motor
Unknown
Mass
Unknown
Launch date (UTC)
1997-09-14 (29 years ago)
Launch vehicle
Unknown
Launch site
Tyuratam Missile And Space Complex (TTMTR)
Object type
Payload
Rocket body
Debris
Shape & HBR
Unknown shape, 0.1 m
Radar Cross Section
Small (<0.1 m²)

Expand to show TLE details & history
Last TLE update: 20 hours ago

TLE from 20 hours ago
0 IRIDIUM 33 DEB
1 35631U 97051RD  26119.85070042  .00000909  00000-0  24029-3 0  9993
2 35631  86.3646 321.5114 0017851  27.1947 348.4683 14.47734473891954
Epoch: 2026-04-29T20:25Z
TLE epoch observation values (Epoch: 2026-04-29T20:25:00.516Z)
Latitude
15.56626°
Longitude
158.4622°
Altitude
723 km
Speed
7.502 km/s
True Right ascension
21h 30m 04s
True Declination
15° 28' 38"
Sunlit
Object was in daylight at epoch
Visualization orbit readout
Latitude
Unknown
Longitude
Unknown
Altitude
Unknown
Speed
Unknown
Apparent Right ascension
Unknown
Apparent Declination
Unknown
Sunlit
N/A
Visualization observer readout
Local Sidereal Time
00:02:42
Azimuth
Unknown
Elevation
Unknown
Doppler factor
Unknown
Orbital elements
Apogee altitude
742.692 km
Perigee altitude
717.315 km
Semi-major axis
7,108.141 km
Eccentricity
0.00179
Inclination
86.3646°
RAAN
321.5114°
Arg. of periapsis
27.1947°
True anomaly
348.42732°
Mean anomaly
348.4683°
Eccentric anomaly
348.44782°
Mean motion
3.62167 °/min
Orbital period
99.4 mins
BSTAR
0.00024029
Loading maneuver chart data...
Computing Atmospheric mass density...
Loading historical data...
Loading historical data...
Loading historical data...
Loading historical data...
Loading historical data...
Loading historical data...
Loading historical data...

Documentation

Showing up to 5 results
|